[[{"header":{"parameterUnit":"m.s-1","parameterCategory":1,"la1":30.2991,"la2":30.254,"lo1":-89.0895,"lo2":-89.0444,"dy":0.0017,"dx":0.0017,"nx":28,"ny":28,"refTime":"2024-10-12T09:00:00:Z","depth":0,"parameterNumber":2,"parameterNumberName":"U-component_of_WINDS"},"data":[0,0,0,0,0,0,0,0,0,0,0,0,0,0,0,0,0,0,0,0,0,0,0,0,0,0,0,0,0,0,0,0,0,0,0,0,0,0,0,0,0,0,0,0,0,0,0,0,0,0,0,0,0,0,0,0,0,0,-0.8765,-0.8764,0,-0.8722,-0.8721,-0.8721,-0.8672,-0.8671,-0.867,-0.867,-0.8625,-0.8624,-0.8624,0,0,0,0,0,0,0,0,0,0,0,0,0,-0.8805,-0.8805,-0.8765,-0.8764,-0.8764,-0.8722,-0.8721,-0.8721,-0.8672,-0.8671,-0.867,-0.8669,-0.8625,-0.8624,-0.8624,0,0,0,0,0,0,0,0,0,0,0,0,0,-0.8777,-0.8804,-0.8765,-0.8734,-0.8731,-0.8722,-0.8721,-0.872,-0.8672,-0.8671,-0.867,-0.8669,-0.8625,-0.8624,-0.8624,-0.864,0,0,-0.8621,-0.8621,0,0,0,0,0,0,0,0,-0.8779,-0.8776,-0.8739,-0.8736,-0.8733,-0.8701,-0.8719,-0.8694,-0.8672,-0.8694,-0.867,-0.8668,-0.8651,-0.8648,-0.8642,-0.8638,-0.8636,-0.8621,-0.8621,-0.862,-0.862,0,0,0,0,0,0,0,-0.8781,-0.8778,-0.8748,-0.8739,-0.8735,-0.8723,-0.8718,-0.8714,-0.8679,-0.8692,-0.8689,-0.8684,-0.8649,-0.8643,-0.8641,-0.8636,-0.8621,-0.862,-0.862,-0.862,-0.8646,-0.8647,0,0,0,0,0,0,-0.8788,-0.8779,-0.8749,-0.8746,-0.8754,-0.8723,-0.8717,-0.8712,-0.8679,-0.8673,-0.8685,-0.8682,-0.8645,-0.8642,-0.8639,-0.8658,-0.862,-0.8619,-0.8619,-0.8645,-0.8647,-0.8648,0,0,0,0,0,0,-0.8789,-0.8785,-0.8751,-0.8762,-0.8757,-0.8724,-0.8718,-0.8712,-0.8706,-0.8674,-0.8667,-0.8686,-0.8644,-0.864,-0.8641,-0.8656,-0.8619,-0.8618,-0.8644,-0.8646,-0.8647,-0.8696,0,0,0,0,0,0,-0.879,-0.8786,-0.8792,-0.8762,-0.8756,-0.8753,-0.8719,-0.8712,-0.8705,-0.8701,-0.8673,-0.8667,-0.8643,-0.8643,-0.864,-0.8654,-0.8618,-0.8642,-0.8644,-0.8647,-0.8693,-0.8699,-0.8704,0,0,0,0,0,-0.8792,-0.8806,-0.8792,-0.8789,-0.8763,-0.8754,-0.8751,-0.8723,-0.8706,-0.8712,-0.8692,-0.8668,-0.8655,-0.8643,-0.864,-0.8654,-0.8641,-0.8644,-0.8646,-0.869,-0.8698,-0.8704,0,0,0,0,0,0,-0.8837,-0.8802,-0.8786,-0.8791,-0.8776,-0.8746,-0.8752,-0.8732,-0.8721,-0.8717,-0.8683,-0.8677,-0.8682,-0.8668,-0.8656,-0.867,-0.8645,-0.8647,-0.8679,-0.8686,-0.8692,-0.8695,-0.8617,0,0,0,0,0,-0.8848,-0.8844,-0.8813,-0.8822,-0.8815,-0.8785,-0.878,-0.8761,-0.8744,-0.8737,-0.8716,-0.87,-0.8693,-0.8689,-0.868,-0.8691,-0.8685,-0.8699,-0.8705,-0.871,-0.8712,-0.8719,-0.8725,-0.8656,-0.8656,-0.8656,0,0,-0.887,-0.885,-0.885,-0.883,-0.8816,-0.8814,-0.878,-0.8778,-0.8776,-0.8736,-0.8736,-0.8721,-0.8701,-0.8708,-0.871,-0.8696,-0.873,-0.8713,-0.8717,-0.8717,-0.8722,-0.8729,-0.8735,-0.8658,-0.8658,-0.8658,0,0,-0.8909,-0.8893,-0.8899,-0.8886,-0.8866,-0.8847,-0.8848,-0.8822,-0.881,-0.881,-0.8781,-0.8778,-0.8766,-0.8753,-0.8746,-0.8783,-0.8761,-0.8781,-0.8812,-0.8819,-0.8824,-0.8829,-0.8844,-0.8849,-0.8784,-0.8784,-0.8784,0,-0.8939,-0.8933,-0.8905,-0.8905,-0.8898,-0.8864,-0.887,-0.8859,-0.8837,-0.8833,-0.8818,-0.8803,-0.8787,-0.8792,-0.8801,-0.8796,-0.8797,-0.8784,-0.8826,-0.883,-0.8834,-0.8848,-0.8853,-0.8787,-0.8786,-0.8786,-0.8786,0,-0.8972,-0.8969,-0.8976,-0.8957,-0.8951,-0.8954,-0.8927,-0.8924,-0.8905,-0.8888,-0.8889,-0.887,-0.8857,-0.8857,-0.8838,-0.8859,-0.8852,-0.8832,-0.8806,-0.8844,-0.8856,-0.8861,-0.879,-0.8789,-0.8789,-0.8788,0,0,-0.9036,-0.9003,-0.9007,-0.8998,-0.8975,-0.8972,-0.8975,-0.8963,-0.8962,-0.8949,-0.8951,-0.8942,-0.8925,-0.8916,-0.8896,-0.8902,-0.8936,-0.8882,-0.8881,-0.8894,-0.896,-0.8975,-0.8981,-0.8921,-0.8922,-0.8923,-0.8962,0,-0.9072,-0.9074,-0.905,-0.9059,-0.9057,-0.9026,-0.9028,-0.9015,-0.8999,-0.8995,-0.8978,-0.8973,-0.8949,-0.8944,-0.8949,-0.8931,-0.8948,-0.8927,-0.8923,-0.8924,-0.893,-0.8988,-0.9003,-0.9041,-0.8966,-0.8967,-0.8967,0,-0.9112,-0.9103,-0.9113,-0.9091,-0.9089,-0.9092,-0.9081,-0.9077,-0.9062,-0.905,-0.9042,-0.902,-0.9022,-0.8997,-0.9001,-0.8987,-0.8984,-0.8975,-0.8976,-0.8975,-0.8948,-0.8989,-0.9052,-0.9058,-0.8975,-0.8974,-0.8973,0,-0.916,-0.915,-0.9155,-0.9148,-0.9123,-0.9126,-0.9115,-0.9098,-0.9094,-0.9085,-0.9082,-0.9073,-0.9068,-0.9061,-0.9038,-0.9022,-0.9044,-0.9018,-0.9036,-0.9036,-0.9041,-0.9041,-0.9106,-0.9039,-0.9039,-0.9039,-0.9039,0,-0.9202,-0.921,-0.9176,-0.9179,-0.9187,-0.9159,-0.9168,-0.9155,-0.9141,-0.9141,-0.9113,-0.9114,-0.9083,-0.9081,-0.9063,-0.9069,-0.9067,-0.9058,-0.9053,-0.9061,-0.9062,-0.9058,-0.9055,-0.904,-0.904,-0.904,-0.9039,0,-0.9256,-0.9234,-0.9238,-0.9214,-0.9208,-0.9215,-0.9195,-0.9197,-0.9181,-0.9182,-0.9181,-0.9155,-0.9152,-0.9128,-0.9118,-0.9106,-0.912,-0.9109,-0.9125,-0.9122,-0.9142,-0.9141,-0.9207,-0.9215,-0.9142,-0.9143,-0.9144,0,-0.9285,-0.929,-0.9268,-0.9266,-0.9257,-0.9255,-0.9251,-0.9225,-0.9222,-0.9206,-0.9211,-0.9206,-0.92,-0.9196,-0.9177,-0.917,-0.916,-0.9183,-0.9158,-0.9167,-0.9161,-0.9162,-0.9163,-0.9189,-0.919,-0.919,-0.9191,0,-0.9338,-0.9327,-0.9323,-0.9315,-0.9311,-0.9304,-0.9294,-0.9295,-0.9266,-0.9265,-0.9261,-0.9257,-0.9249,-0.9244,-0.9235,-0.9224,-0.9203,-0.9199,-0.9203,-0.9211,-0.9221,-0.9217,-0.9141,-0.9198,-0.9197,-0.9196,-0.9196,-0.9196,-0.9381,-0.9385,-0.937,-0.9366,-0.9357,-0.935,-0.9352,-0.9336,-0.9333,-0.9325,-0.931,-0.9309,-0.9296,-0.9281,-0.9273,-0.9272,-0.926,-0.9265,-0.9267,-0.9269,-0.9273,-0.9221,-0.927,-0.927,-0.927,-0.927,-0.927,0,-0.9433,-0.9423,-0.942,-0.9409,-0.9407,-0.9388,-0.9377,-0.9377,-0.9377,-0.9366,-0.9362,-0.9359,-0.9355,-0.9337,-0.9331,-0.9335,-0.9325,-0.9334,-0.9334,-0.9332,-0.9284,-0.9282,-0.9342,-0.9342,-0.9342,-0.9342,-0.9342,-0.9342,-0.946,-0.9467,-0.9455,-0.9457,-0.9447,-0.9446,-0.9442,-0.9436,-0.9427,-0.9426,-0.9423,-0.9411,-0.9398,-0.9392,-0.9388,-0.9383,-0.9382,-0.9395,-0.9386,-0.9342,-0.9335,-0.9328,-0.9326,-0.9395,-0.9395,-0.9434,-0.9435,-0.9435]},{"header":{"parameterUnit":"m.s-1","parameterCategory":1,"la1":30.2991,"la2":30.254,"lo1":-89.0895,"lo2":-89.0444,"dy":0.0017,"dx":0.0017,"nx":28,"ny":28,"refTime":"2024-10-12T09:00:00:Z","depth":0,"parameterNumber":3,"parameterNumberName":"V-component_of_WINDS"},"data":[0,0,0,0,0,0,0,0,0,0,0,0,0,0,0,0,0,0,0,0,0,0,0,0,0,0,0,0,0,0,0,0,0,0,0,0,0,0,0,0,0,0,0,0,0,0,0,0,0,0,0,0,0,0,0,0,0,0,2.022,2.0219,0,2.0206,2.0206,2.0206,2.0196,2.0196,2.0196,2.0196,2.018,2.018,2.0179,0,0,0,0,0,0,0,0,0,0,0,0,0,2.0234,2.0233,2.022,2.0219,2.0219,2.0206,2.0206,2.0206,2.0196,2.0196,2.0196,2.0196,2.018,2.018,2.0179,0,0,0,0,0,0,0,0,0,0,0,0,0,2.0224,2.0233,2.022,2.0213,2.0212,2.0206,2.0206,2.0205,2.0196,2.0196,2.0196,2.0196,2.018,2.018,2.0179,2.0178,0,0,2.0178,2.0177,0,0,0,0,0,0,0,0,2.0225,2.0224,2.0214,2.0214,2.0213,2.0203,2.0205,2.0196,2.0197,2.0203,2.0196,2.0196,2.0188,2.0187,2.0184,2.0177,2.0176,2.0178,2.0177,2.0177,2.0177,0,0,0,0,0,0,0,2.0226,2.0224,2.0214,2.0214,2.0213,2.0209,2.0208,2.0203,2.0196,2.0202,2.0201,2.02,2.0187,2.0185,2.0184,2.0176,2.0178,2.0177,2.0177,2.0177,2.0162,2.0162,0,0,0,0,0,0,2.0228,2.0225,2.0215,2.0214,2.0219,2.0209,2.0208,2.0206,2.0196,2.0194,2.02,2.02,2.0186,2.0184,2.0183,2.0178,2.0177,2.0176,2.0176,2.0162,2.0162,2.0162,0,0,0,0,0,0,2.0228,2.0227,2.0215,2.0219,2.0217,2.0209,2.0207,2.0206,2.0203,2.0194,2.0193,2.0199,2.0186,2.0184,2.0178,2.0177,2.0176,2.0176,2.0162,2.0162,2.0162,2.0169,0,0,0,0,0,0,2.0228,2.0227,2.0228,2.0219,2.0217,2.0212,2.0207,2.0206,2.0203,2.0202,2.0193,2.0191,2.0185,2.0179,2.0178,2.0176,2.0175,2.0162,2.0162,2.0162,2.0169,2.0169,2.0169,0,0,0,0,0,2.0229,2.023,2.0228,2.0227,2.0218,2.0212,2.0211,2.0205,2.0203,2.0202,2.0195,2.0191,2.0178,2.0179,2.0177,2.0175,2.0162,2.0162,2.0162,2.0168,2.0169,2.0169,0,0,0,0,0,0,2.0239,2.0229,2.0226,2.0225,2.0219,2.0211,2.021,2.0206,2.02,2.02,2.0191,2.0189,2.0184,2.0179,2.0181,2.0171,2.0169,2.0169,2.0175,2.0175,2.0175,2.0176,2.0175,0,0,0,0,0,2.0241,2.0238,2.0229,2.0229,2.0226,2.0219,2.0216,2.0211,2.0205,2.0202,2.0196,2.0189,2.0182,2.0178,2.0172,2.0168,2.0164,2.0165,2.0166,2.0166,2.0166,2.0159,2.0159,2.0162,2.0162,2.0162,0,0,2.0245,2.024,2.0238,2.0231,2.0226,2.0221,2.0217,2.0213,2.0209,2.0201,2.0195,2.019,2.0181,2.0175,2.0172,2.0171,2.0164,2.0166,2.0166,2.0166,2.0159,2.0159,2.0159,2.0162,2.0162,2.0162,0,0,2.025,2.0247,2.0245,2.0239,2.0232,2.0226,2.0225,2.0216,2.0212,2.0206,2.0199,2.0194,2.0184,2.0177,2.0172,2.0171,2.0166,2.0169,2.0171,2.0165,2.0165,2.0164,2.0162,2.0161,2.0169,2.0169,2.0169,0,2.0257,2.0251,2.0244,2.024,2.0236,2.0228,2.0225,2.022,2.021,2.0206,2.0205,2.019,2.0184,2.0175,2.0174,2.0172,2.0169,2.017,2.0165,2.0165,2.0165,2.0162,2.0161,2.0169,2.0169,2.0169,2.0169,0,2.0257,2.0253,2.0252,2.0242,2.0238,2.0234,2.0225,2.0221,2.0216,2.021,2.0201,2.0193,2.0184,2.0182,2.0177,2.0171,2.017,2.0167,2.0165,2.0165,2.0162,2.0161,2.017,2.017,2.0169,2.0169,0,0,2.027,2.0255,2.0255,2.0249,2.0238,2.0234,2.0228,2.0219,2.0215,2.0208,2.0201,2.0191,2.0188,2.0182,2.0176,2.0172,2.0168,2.0169,2.0168,2.0167,2.0157,2.0158,2.0157,2.0164,2.0164,2.0164,2.0157,0,2.0272,2.0263,2.0255,2.0248,2.0242,2.0234,2.0228,2.022,2.0213,2.0206,2.0198,2.019,2.0187,2.0183,2.0178,2.0169,2.0165,2.017,2.0156,2.0156,2.0158,2.0156,2.0158,2.0152,2.0156,2.0156,2.0156,0,2.0275,2.0267,2.0259,2.0246,2.0243,2.0239,2.0228,2.0222,2.0211,2.0206,2.0199,2.0192,2.0183,2.0182,2.0168,2.0171,2.0165,2.0159,2.0159,2.0157,2.0155,2.0152,2.0151,2.0149,2.0154,2.0155,2.0155,0,2.0282,2.027,2.0263,2.0258,2.0244,2.024,2.0234,2.0223,2.0217,2.0207,2.0202,2.0192,2.0185,2.0176,2.0166,2.0166,2.0152,2.0151,2.0146,2.0146,2.0143,2.0143,2.0139,2.0141,2.0141,2.0141,2.0141,0,2.0285,2.028,2.0265,2.0261,2.0254,2.0244,2.0237,2.023,2.0219,2.0212,2.0203,2.0196,2.0183,2.0174,2.0166,2.0154,2.0152,2.0146,2.0143,2.0146,2.0146,2.0141,2.0141,2.0141,2.0141,2.0141,2.0141,0,2.0292,2.0283,2.0274,2.026,2.0256,2.0251,2.0239,2.0233,2.0224,2.0215,2.0212,2.0198,2.0186,2.0175,2.0159,2.0153,2.0141,2.0139,2.0145,2.0143,2.0138,2.0138,2.013,2.0127,2.0132,2.0132,2.0132,0,2.0294,2.029,2.0275,2.0269,2.0263,2.0254,2.0247,2.0236,2.0229,2.0215,2.021,2.0197,2.0187,2.0167,2.0155,2.0142,2.0139,2.0136,2.0137,2.0138,2.0136,2.0136,2.0134,2.0136,2.0136,2.0136,2.0136,0,2.0298,2.0293,2.0284,2.0272,2.0265,2.0255,2.0245,2.024,2.0227,2.0219,2.0207,2.0198,2.0181,2.0167,2.0152,2.0144,2.0137,2.0136,2.0134,2.0136,2.0139,2.0135,2.0143,2.0136,2.0136,2.0136,2.0136,2.0136,2.0302,2.0296,2.0284,2.0273,2.0264,2.0255,2.0247,2.0238,2.0227,2.0213,2.0206,2.0193,2.0179,2.0158,2.0149,2.0137,2.0136,2.0133,2.0132,2.0131,2.0131,2.0142,2.0134,2.0134,2.0134,2.0134,2.0134,0,2.0303,2.0294,2.0285,2.027,2.0261,2.0256,2.0244,2.0236,2.0224,2.0212,2.0201,2.0185,2.0171,2.0157,2.0142,2.0135,2.0131,2.0131,2.0131,2.0128,2.0134,2.0137,2.0134,2.0134,2.0134,2.0134,2.0134,2.0134,2.0303,2.0293,2.0286,2.027,2.026,2.0248,2.0241,2.023,2.022,2.0203,2.0191,2.0182,2.0168,2.0151,2.0137,2.0133,2.0127,2.0128,2.0123,2.0128,2.0128,2.0128,2.0131,2.0127,2.0127,2.0118,2.0118,2.0117]}]]